This is the latest recevied weather packets stored in our database for station/object IW2HNF-3. If no packets are shown the sender has not sent any weather packets the latest 10 day(s).
| Time | Temp. | Humidity | Pressure | Rain* | Wind** | Luminosity | Snow |
|---|---|---|---|---|---|---|---|
| 1788568872 | 22.78° C | 63% | 1016.1 hPa | 0 mm | - | - | - |
| 1788568248 | 22.78° C | 62% | 1016.2 hPa | 0 mm | - | - | - |
| 1788567672 | 22.78° C | 60% | 1016.3 hPa | 0 mm | - | - | - |
| 1788567048 | 22.78° C | 60% | 1016.3 hPa | 0 mm | - | - | - |
| 1788566856 | 22.78° C | 58% | 1016.5 hPa | 0 mm | - | - | - |
| 1788565848 | 23.33° C | 58% | 1016.5 hPa | 0 mm | - | - | - |
| 1788565272 | 23.33° C | 55% | 1016.5 hPa | 0 mm | - | - | - |
| 1788564648 | 23.33° C | 53% | 1016.5 hPa | 0 mm | - | - | - |
| 1788564071 | 23.33° C | 54% | 1016.5 hPa | 0 mm | - | - | - |
| 1788563448 | 23.33° C | 54% | 1016.6 hPa | 0 mm | - | - | - |
| 1788562872 | 23.89° C | 54% | 1016.7 hPa | 0 mm | - | - | - |
| 1788562247 | 23.89° C | 54% | 1016.8 hPa | 0 mm | - | - | - |
| 1788561672 | 23.89° C | 54% | 1016.8 hPa | 0 mm | - | - | - |
| 1788561048 | 23.89° C | 54% | 1016.7 hPa | 0 mm | - | - | - |
| 1788560472 | 24.44° C | 54% | 1016.7 hPa | 0 mm | - | - | - |
| 1788559849 | 24.44° C | 54% | 1016.8 hPa | 0 mm | - | - | - |
| 1788559656 | 24.44° C | 56% | 1016.8 hPa | 0 mm | - | - | - |
| 1788558648 | 24.44° C | 58% | 1016.9 hPa | 0 mm | - | - | - |
| 1788558072 | 24.44° C | 58% | 1016.9 hPa | 0 mm | - | - | - |
| 1788557448 | 24.44° C | 58% | 1017 hPa | 0 mm | - | - | - |
| 1788556872 | 25° C | 58% | 1017.1 hPa | 0 mm | - | - | - |
| 1788556248 | 25° C | 57% | 1017.2 hPa | 0 mm | - | - | - |
| 1788555671 | 25.56° C | 55% | 1017.1 hPa | 0 mm | - | - | - |
| 1788555048 | 25.56° C | 52% | 1017.2 hPa | 0 mm | - | - | - |
| 1788554472 | 25.56° C | 53% | 1017.2 hPa | 0 mm | - | - | - |
* Rain latest hour (hover to see other rain measurements)
** Current wind speed in m/s (hover to see current wind gust speed)